Wind_Speed
48 47 50 48 45 41 40 39 37 37 37 37 38 39 39 38 37 38 39 40 40 41 38 38 42 38 36 36 35 36 36 40 39 39 40 41 42 40 40 44 43 40 37 33 22
48 47 49 46 45 44 40 39 37 35 35 34 35 36 39 39 38 37 37 38 38 37 35 36 41 35 35 35 35 36 36 39 40 39 40 41 41 41 42 41 39 37 33 27 3
48 48 48 46 46 45 41 38 37 35 34 35 36 38 37 39 40 38 38 38 38 39 35 36 39 35 35 38 38 38 38 37 37 38 40 42 43 43 43 40 37 35 29 4 5
47 47 46 45 45 43 41 39 37 36 34 35 35 38 38 38 40 40 39 38 39 40 38 37 39 39 38 38 37 38 38 38 38 41 40 44 43 41 39 33 32 32 13 14 10
45 45 44 44 44 44 43 40 38 37 36 34 34 36 37 37 39 40 40 40 39 40 39 39 39 40 39 39 40 41 42 40 40 43 42 38 38 37 36 29 29 25 8 16 15
44 43 43 44 43 43 42 41 40 38 37 37 36 36 36 38 40 41 41 42 41 40 39 40 40 41 40 41 42 42 42 43 44 43 40 37 35 36 31 30 29 22 9 21 17
45 45 44 43 42 41 42 41 41 39 39 38 38 37 35 37 38 41 41 42 41 41 41 40 41 42 42 43 44 44 44 44 42 40 38 36 34 35 34 31 28 24 15 19 23
47 45 43 43 42 42 43 44 42 42 40 40 39 36 38 38 39 41 42 43 41 40 41 43 43 44 45 44 44 45 45 45 43 39 36 36 36 36 38 34 28 22 15 17 30
43 44 45 43 43 44 44 42 43 43 42 42 41 39 39 39 41 41 42 42 42 41 41 42 43 43 44 44 43 44 47 45 42 38 36 36 38 38 39 36 28 19 17 17 20
40 43 44 45 45 45 45 46 46 45 45 44 43 43 42 43 42 40 41 41 43 43 43 43 43 45 44 44 43 44 46 47 41 39 38 38 37 34 35 31 26 14 21 17 22
42 42 44 47 49 51 52 52 50 50 48 47 46 46 45 44 43 43 44 43 44 44 44 46 47 43 46 45 43 45 45 47 45 40 41 37 34 28 26 23 26 14 27 22 24
42 46 49 52 53 56 58 57 57 55 54 53 51 48 48 46 45 46 45 42 43 43 42 46 46 45 47 45 44 41 41 42 42 39 36 35 31 25 21 23 25 23 23 28 27
43 50 56 62 62 64 65 64 61 59 57 55 52 51 49 49 46 46 44 42 41 43 46 45 43 44 45 46 42 39 37 37 35 33 31 34 25 24 25 31 31 26 20 30 30
39 43 52 61 63 66 67 65 62 59 56 56 53 51 50 46 44 42 42 42 41 39 39 46 48 48 47 44 45 45 39 33 31 30 34 34 27 28 31 29 29 23 17 30 29
29 28 37 50 50 47 51 53 54 57 56 56 50 49 43 44 47 41 39 38 38 36 41 41 35 38 40 40 39 41 34 33 31 33 37 37 28 29 26 20 23 22 18 28 30
20 13 10 25 35 43 39 44 50 45 43 43 42 41 41 44 45 38 34 32 32 32 34 37 38 37 41 39 42 44 37 33 32 33 38 34 20 28 20 20 24 22 19 25 30
19 16 19 23 27 38 41 42 39 36 40 35 39 40 40 39 37 34 34 35 36 35 35 37 39 39 40 42 41 42 40 43 41 42 39 31 20 25 16 20 23 21 20 22 37
24 20 21 25 28 27 33 36 34 38 40 39 39 38 37 38 37 36 36 38 43 43 40 38 42 40 40 42 40 37 36 36 39 36 35 29 21 21 18 19 17 21 21 20 38
30 23 24 29 30 28 30 33 38 41 40 37 37 36 37 38 40 40 42 44 48 45 42 40 41 42 40 39 38 33 33 33 29 32 29 22 21 20 21 21 18 21 24 25 26
36 30 27 30 32 31 30 32 36 36 36 37 37 37 37 37 41 41 44 50 51 44 39 38 39 40 35 37 34 34 31 30 30 29 24 22 18 23 22 22 21 24 25 25 26
43 38 34 30 30 32 34 35 36 37 38 39 37 35 34 36 35 34 35 42 44 41 40 42 40 39 34 34 35 34 32 29 29 26 23 19 19 23 23 23 23 23 21 21 18
49 46 42 37 32 30 34 34 34 33 31 30 29 31 32 31 29 28 28 32 35 38 38 38 36 37 36 34 33 31 32 30 27 25 19 19 22 21 21 25 26 22 21 27 14
54 52 48 44 40 36 33 33 33 31 30 30 30 29 29 27 27 26 24 25 32 35 34 32 34 38 37 35 36 33 34 32 28 22 23 22 23 21 23 24 29 24 23 25 17
61 57 54 51 47 44 41 39 38 36 35 33 30 28 25 25 24 24 22 17 25 31 33 31 32 34 33 34 30 30 29 29 28 25 26 25 23 24 25 29 27 23 20 24 17
66 63 61 57 54 52 49 46 45 42 38 37 37 31 29 29 26 25 24 17 21 28 30 31 32 31 32 29 27 26 28 28 27 27 28 25 26 22 30 32 24 27 23 21 19
74 69 66 62 60 58 55 52 51 49 45 43 43 38 35 32 28 29 27 20 19 26 29 27 19 17 26 31 28 28 29 30 30 25 30 30 29 25 29 28 20 24 28 23 23
79 77 73 70 66 63 62 60 57 55 50 47 46 43 38 35 34 33 31 24 22 23 25 25 24 25 30 34 28 21 24 33 31 33 32 32 27 26 28 19 20 19 23 24 20
Wind_Direction
230 229 229 231 232 230 231 236 238 240 239 238 239 235 236 236 235 236 233 236 242 247 249 251 252 252 256 260 262 265 272 277 281 284 288 292 298 304 310 316 320 319 320 315 324
229 228 228 230 229 230 231 236 237 236 235 234 238 237 235 235 236 235 239 236 237 242 244 248 251 251 254 258 261 264 267 273 280 284 288 291 295 302 307 311 316 313 314 313 246
227 226 226 228 227 230 231 233 232 227 231 235 234 236 236 235 238 237 236 238 236 238 238 242 250 251 251 255 259 263 268 274 279 282 288 293 299 304 305 314 312 309 312 251 115
227 226 224 226 227 228 229 229 227 229 232 234 233 235 236 236 236 238 236 238 238 240 238 240 246 248 248 254 258 262 267 272 278 285 289 292 296 300 304 309 302 302 314 178 157
227 223 223 224 226 228 227 224 226 231 233 236 236 235 234 240 239 238 239 239 239 241 242 242 244 246 250 252 256 261 268 273 275 280 284 287 294 295 300 302 299 307 215 202 175
222 221 222 224 226 229 227 224 227 231 234 238 241 239 240 241 240 238 239 240 240 239 242 245 245 247 249 252 257 263 268 272 275 279 283 289 292 293 301 305 306 303 240 226 207
220 220 221 225 226 228 230 229 230 234 236 240 243 243 243 243 244 240 240 241 242 240 241 243 247 250 253 254 259 263 266 269 272 276 285 290 293 295 297 300 301 291 235 238 217
219 221 223 225 227 228 230 234 233 235 238 239 243 245 244 244 243 242 241 242 243 242 245 245 247 251 253 256 260 263 264 265 269 275 283 289 293 293 293 300 299 284 237 241 230
220 221 225 226 227 230 233 231 234 235 238 239 243 247 246 244 243 244 243 242 244 245 247 249 248 252 254 259 262 266 269 271 275 281 284 286 288 289 292 300 297 272 240 220 175
220 222 224 229 231 232 233 233 235 236 239 241 242 246 247 243 245 247 246 244 245 246 249 252 255 255 257 260 266 270 274 276 278 282 282 284 287 287 289 294 286 269 210 218 195
225 229 233 234 232 234 235 235 239 239 239 244 246 246 246 246 245 244 245 245 247 248 251 253 256 259 262 260 266 270 274 278 281 280 282 283 283 277 285 282 289 265 213 215 200
236 238 238 238 239 238 236 236 238 240 242 243 245 247 247 248 245 245 247 250 248 247 249 254 258 260 264 268 269 271 274 277 281 283 283 281 282 284 285 275 295 290 228 204 207
248 250 247 242 240 238 238 236 237 239 242 242 243 244 244 245 243 244 247 249 251 250 245 250 255 258 263 269 271 272 271 274 274 276 277 281 291 291 283 284 291 284 226 211 209
258 256 243 235 234 233 235 236 238 239 239 241 241 245 242 245 245 241 247 249 250 251 252 252 254 259 264 265 265 266 270 263 263 269 274 279 294 296 279 282 285 274 234 215 210
266 253 228 225 222 223 227 227 228 233 235 238 238 239 239 242 241 235 241 243 244 245 249 255 253 255 257 260 263 267 260 261 264 269 276 281 287 284 283 285 272 273 256 217 206
267 261 219 208 205 207 218 221 222 223 224 228 227 231 230 236 237 233 237 240 246 247 248 252 255 255 257 261 261 264 264 267 271 272 283 284 277 277 284 272 263 268 262 207 203
250 226 212 207 212 209 209 210 208 215 215 212 218 225 227 230 235 234 235 240 246 249 252 254 256 257 257 258 258 260 266 265 266 271 277 282 267 275 275 261 256 251 251 210 194
245 230 214 211 220 224 212 203 204 204 211 214 223 225 230 233 238 241 241 242 245 246 250 255 259 258 259 260 261 263 267 266 264 265 268 269 260 277 260 254 246 231 229 227 201
241 239 220 214 220 213 213 209 207 212 215 222 226 232 236 236 240 242 245 247 248 249 250 253 256 259 260 259 260 262 260 261 260 268 276 271 267 251 245 239 225 215 216 220 212
234 235 231 223 218 215 210 211 213 218 220 222 227 236 241 241 244 243 245 245 248 249 246 248 251 256 256 255 255 255 258 257 260 266 268 269 258 237 234 228 213 212 213 211 203
228 229 233 232 226 223 219 221 222 224 228 231 230 232 234 239 243 247 247 245 246 247 241 240 243 248 248 249 251 253 255 254 259 263 259 262 240 236 230 220 216 216 219 207 201
227 227 227 228 230 223 220 220 218 219 221 221 217 221 228 237 242 244 243 244 240 240 240 240 242 249 248 246 246 249 252 256 257 254 260 246 238 234 234 222 215 214 213 201 215
228 227 226 226 225 226 224 222 220 216 215 217 217 219 227 235 244 248 250 239 235 235 237 236 244 249 248 245 244 244 246 246 246 247 250 225 234 226 234 238 229 208 212 212 219
230 228 227 226 225 224 224 222 221 217 217 219 220 219 228 239 247 251 252 238 232 234 237 230 235 245 248 250 254 250 247 242 244 236 236 222 223 230 238 241 230 225 218 218 225
228 230 229 228 226 226 227 223 224 222 220 225 229 225 227 233 241 249 251 233 225 235 238 242 242 240 247 250 249 244 244 244 235 226 225 212 219 220 240 242 234 236 223 229 234
228 227 229 230 229 227 227 227 228 228 225 226 233 231 231 235 235 243 247 241 215 225 233 239 247 232 246 247 240 240 236 233 228 215 213 206 212 225 241 251 233 224 232 238 245
229 229 229 231 231 229 229 227 230 232 229 227 231 233 231 234 235 238 243 240 231 228 232 229 232 231 235 241 246 242 234 226 220 201 205 205 206 222 237 237 209 206 231 237 242
Height
10851 10858 10863 10868 10873 10878 10881 10886 10888 10892 10895 10898 10902 10905 10908 10911 10914 10917 10921 10926 10930 10934 10938 10939 10939 10945 10949 10951 10954 10956 10957 10955 10956 10957 10956 10956 10956 10957 10957 10958 10953 10950 10949 10947 10944
10843 10850 10855 10861 10866 10871 10874 10879 10882 10886 10889 10892 10895 10898 10902 10905 10908 10911 10916 10919 10924 10928 10932 10933 10933 10940 10943 10944 10946 10948 10952 10950 10951 10952 10951 10951 10953 10954 10953 10952 10950 10947 10947 10942 10939
10835 10842 10848 10854 10859 10864 10868 10871 10876 10879 10883 10886 10888 10892 10896 10898 10902 10905 10909 10912 10916 10920 10926 10927 10928 10935 10936 10938 10941 10941 10944 10946 10947 10945 10945 10944 10944 10945 10944 10947 10945 10943 10942 10936 10936
10828 10834 10841 10847 10853 10857 10861 10866 10869 10873 10877 10880 10882 10886 10890 10892 10896 10899 10902 10906 10909 10913 10919 10921 10922 10926 10930 10934 10935 10937 10939 10940 10942 10939 10941 10939 10939 10939 10940 10944 10941 10938 10935 10933 10932
10821 10827 10834 10840 10845 10850 10855 10859 10863 10867 10871 10874 10876 10880 10884 10886 10889 10893 10896 10900 10903 10906 10912 10914 10916 10918 10923 10927 10930 10931 10932 10935 10935 10936 10936 10938 10936 10933 10935 10938 10935 10931 10928 10928 10927
10814 10821 10827 10832 10838 10843 10848 10853 10857 10860 10864 10867 10869 10873 10877 10880 10882 10886 10891 10894 10897 10901 10904 10907 10910 10911 10916 10920 10922 10924 10927 10927 10926 10926 10929 10931 10931 10926 10929 10929 10926 10924 10924 10922 10922
10807 10814 10819 10825 10830 10836 10841 10846 10850 10853 10857 10860 10863 10867 10871 10873 10876 10880 10885 10888 10891 10895 10897 10900 10903 10905 10908 10913 10916 10918 10918 10918 10919 10920 10923 10923 10924 10922 10921 10921 10919 10918 10918 10918 10914
10799 10806 10812 10818 10823 10828 10833 10837 10843 10847 10850 10853 10856 10860 10864 10867 10870 10873 10877 10881 10884 10888 10891 10893 10896 10899 10901 10906 10909 10909 10909 10910 10912 10915 10918 10915 10914 10912 10909 10912 10912 10910 10910 10908 10907
10792 10799 10805 10811 10816 10821 10825 10830 10835 10839 10842 10846 10849 10853 10856 10860 10863 10866 10870 10874 10878 10881 10883 10885 10889 10892 10896 10900 10902 10900 10897 10900 10904 10907 10910 10908 10906 10903 10901 10903 10904 10902 10902 10902 10904
10785 10791 10797 10802 10808 10814 10818 10822 10826 10830 10833 10837 10841 10845 10849 10851 10855 10860 10863 10868 10870 10874 10877 10878 10880 10885 10891 10894 10894 10893 10890 10890 10897 10900 10901 10901 10899 10897 10895 10896 10894 10896 10898 10897 10899
10778 10783 10788 10793 10799 10804 10808 10812 10817 10821 10826 10830 10834 10837 10840 10844 10849 10852 10855 10860 10863 10868 10871 10870 10873 10880 10879 10886 10887 10887 10885 10883 10886 10892 10891 10893 10893 10892 10891 10890 10886 10889 10891 10891 10894
10769 10773 10777 10781 10787 10792 10796 10801 10806 10812 10817 10822 10826 10829 10832 10838 10843 10844 10848 10853 10857 10861 10864 10863 10867 10871 10871 10876 10880 10881 10880 10878 10878 10880 10882 10884 10886 10886 10886 10883 10882 10882 10883 10885 10886
10757 10759 10762 10765 10772 10777 10781 10788 10795 10801 10806 10811 10816 10820 10824 10829 10835 10837 10841 10845 10849 10853 10856 10856 10861 10863 10865 10867 10871 10874 10874 10874 10872 10873 10873 10875 10881 10882 10880 10876 10875 10875 10876 10878 10879
10745 10742 10743 10746 10755 10760 10766 10775 10783 10789 10795 10800 10806 10812 10816 10822 10826 10832 10834 10837 10841 10846 10849 10849 10855 10858 10860 10860 10863 10862 10867 10866 10866 10868 10867 10869 10876 10874 10870 10870 10869 10869 10869 10871 10874
10734 10728 10725 10731 10739 10747 10754 10763 10770 10776 10785 10791 10799 10804 10811 10812 10814 10824 10827 10831 10833 10837 10841 10843 10846 10847 10849 10852 10854 10852 10858 10859 10862 10864 10862 10863 10871 10868 10863 10865 10863 10862 10863 10866 10873
10725 10722 10721 10726 10731 10737 10746 10755 10762 10768 10776 10785 10792 10796 10802 10802 10806 10816 10822 10825 10828 10832 10833 10834 10835 10840 10842 10845 10848 10845 10850 10853 10856 10857 10856 10857 10863 10860 10861 10859 10857 10858 10859 10865 10873
10723 10722 10724 10726 10730 10734 10739 10748 10755 10765 10769 10779 10783 10787 10793 10797 10802 10809 10815 10818 10820 10824 10826 10827 10828 10831 10834 10836 10838 10839 10842 10847 10848 10848 10850 10853 10857 10855 10857 10854 10854 10855 10856 10858 10866
10718 10720 10722 10725 10728 10733 10738 10743 10753 10757 10764 10770 10775 10782 10788 10793 10798 10803 10808 10810 10809 10812 10817 10820 10819 10823 10826 10828 10830 10834 10836 10838 10839 10842 10843 10847 10849 10851 10851 10850 10851 10852 10855 10855 10859
10712 10716 10719 10722 10724 10730 10736 10742 10746 10751 10759 10765 10770 10775 10781 10787 10791 10795 10797 10798 10797 10804 10810 10813 10812 10814 10819 10821 10823 10828 10829 10830 10833 10835 10837 10842 10845 10843 10844 10845 10847 10849 10851 10853 10856
10705 10710 10714 10717 10721 10727 10734 10737 10743 10749 10754 10759 10764 10768 10773 10778 10781 10787 10788 10785 10787 10795 10802 10806 10804 10805 10811 10813 10817 10820 10823 10825 10827 10830 10834 10836 10838 10837 10839 10841 10844 10846 10848 10850 10855
10697 10703 10707 10712 10717 10723 10728 10732 10737 10742 10747 10751 10757 10760 10764 10768 10772 10776 10776 10775 10781 10787 10791 10793 10796 10799 10802 10806 10811 10814 10817 10820 10822 10825 10827 10830 10832 10832 10834 10838 10841 10844 10847 10850 10854
10687 10693 10700 10706 10712 10716 10720 10725 10729 10734 10739 10744 10749 10753 10757 10761 10764 10766 10766 10769 10774 10777 10782 10787 10791 10793 10795 10799 10802 10808 10810 10813 10816 10819 10823 10825 10824 10827 10830 10833 10837 10841 10846 10848 10850
10674 10682 10691 10697 10704 10709 10714 10718 10723 10729 10734 10739 10743 10747 10752 10756 10757 10759 10759 10762 10765 10770 10775 10781 10784 10785 10788 10791 10794 10799 10802 10805 10809 10813 10817 10819 10818 10822 10823 10827 10831 10837 10841 10844 10846
10661 10670 10678 10686 10694 10700 10705 10711 10716 10722 10727 10733 10737 10743 10748 10750 10752 10753 10754 10758 10759 10762 10767 10772 10776 10777 10780 10782 10787 10791 10794 10798 10803 10807 10810 10814 10815 10816 10818 10822 10828 10833 10838 10839 10844
10647 10656 10663 10675 10682 10689 10694 10703 10707 10714 10721 10725 10729 10737 10740 10742 10746 10746 10748 10751 10754 10757 10760 10766 10769 10771 10772 10776 10782 10786 10788 10790 10795 10799 10804 10808 10808 10812 10811 10816 10826 10831 10834 10837 10840
10632 10640 10650 10659 10668 10676 10684 10692 10697 10703 10711 10717 10720 10728 10733 10736 10741 10740 10742 10745 10749 10751 10753 10757 10762 10767 10767 10768 10774 10777 10781 10784 10788 10793 10798 10802 10804 10805 10807 10813 10822 10826 10829 10835 10837
10613 10624 10635 10644 10654 10663 10670 10679 10684 10690 10699 10707 10712 10718 10725 10730 10733 10735 10738 10740 10744 10747 10749 10752 10755 10760 10763 10762 10765 10770 10775 10778 10783 10786 10790 10794 10801 10803 10806 10810 10816 10820 10824 10829 10831